Tracking 23732 objects as of 28-Sep-2021
HD Live streaming from Space Station
objects crossing your sky now

DMSP 5D-2 F13 DEB

Track DMSP 5D-2 F13 DEB now!
10-day predictions


NORAD ID: 44584
Int'l Code: 1995-015KB
Perigee: 786.4 km
Apogee: 814.6 km
Inclination: 98.7 °
Period: 100.7 minutes
Semi major axis: 7171 km
RCS: Unknown
Launch date: March 24, 1995
Source: United States (US)
Launch site: AIR FORCE WESTERN TEST RANGE (AFWTR)

Note: This is SATELLITE DEBRIS
aabbcc
Your satellite tracking list
Your tracking list is empty




NASA's NSSDC Master Catalog

Two Line Element Set (TLE):
1 44584U 95015KB  21270.28145925  .00003535  00000-0  13973-2 0  9994
2 44584  98.7274 289.7165 0019623 338.3379  81.8603 14.29518622245310
Source of the keplerian elements: AFSPC